Location: Huesca
(42.1318°N, 0.4078°W)
Time: 23:14:34
(UTC+02:00)

ACS3 Solar Sail - Pass Details

Date: 20 June 2024
Orbit: 992 x 1023 km, 97.4° (Epoch: 12 July)

Event Time Altitude Azimuth Distance (km) Brightness Sun altitude
Exits shadow 01:01:57 11° 230° (SW) 2,696 6.9 -22.9°
Maximum altitude 01:05:54 19° 271° (W) 2,185 6.8 -23.1°
Drops below altitude 10° 01:10:10 10° 315° (NW) 2,768 8.0 -23.3°
Sets 01:13:30 0° 333° (NNW) 3,720 9.1 -23.4°
